DW9525 Weather Reports


Display with metric or nautical units.
time (UTC)temp
F
wind
direction
speed
MPH
gust
MPH
rain 1hr
in
rain 24hr
in
rain mn
in
humidity
%
barometer
mb
20260507113012 49 352 0.0 0.0 0.00 0.00 0.00 75 1024.0
20260507111509 49 352 0.0 0.0 0.00 0.00 0.00 75 1024.2
20260507110008 49 352 0.0 0.0 0.00 0.00 0.00 75 1024.2
20260507104507 49 353 0.0 0.0 0.00 0.00 0.00 75 1024.2
20260507103003 50 353 0.0 0.0 0.00 0.00 0.00 75 1024.2
20260507101503 51 352 0.0 0.0 0.00 0.00 0.00 75 1024.2
20260507100100 51 346 0.0 0.0 0.00 0.00 0.00 74 1024.2
20260507094553 50 345 0.0 0.0 0.00 0.00 0.00 75 1024.5
20260507093041 51 345 0.0 0.0 0.00 0.00 0.00 75 1024.5
20260507091533 51 345 0.0 0.0 0.00 0.00 0.00 74 1024.7
20260507090030 51 345 0.0 0.0 0.00 0.00 0.00 74 1024.9
20260507084529 51 323 0.0 0.0 0.00 0.00 0.00 74 1025.0
20260507083030 51 323 0.0 0.0 0.00 0.00 0.00 74 1025.2
20260507081536 51 324 0.0 0.0 0.00 0.00 0.00 74 1025.3
20260507080028 52 324 0.0 0.0 0.00 0.00 0.00 74 1025.4
20260507074528 53 324 0.0 0.0 0.00 0.00 0.00 74 1025.1
20260507073027 52 324 0.0 0.0 0.00 0.00 0.00 74 1025.1
20260507071513 53 324 0.0 0.0 0.00 0.00 0.00 73 1025.2
20260507070017 53 324 0.0 0.0 0.00 0.00 0.00 73 1025.3
20260507064555 54 324 0.0 0.0 0.00 0.00 0.00 73 1025.4
20260507063050 54 325 0.0 0.0 0.00 0.00 0.00 73 1025.5
20260507061539 54 325 0.0 0.0 0.00 0.00 0.00 73 1025.3
20260507060038 55 325 0.0 0.0 0.00 0.00 0.00 73 1025.5
20260507054538 55 325 0.0 0.0 0.00 0.00 0.00 72 1025.4
20260507053037 56 325 0.0 0.0 0.00 0.00 0.00 72 1025.4
20260507051537 56 325 0.0 0.0 0.00 0.00 0.00 72 1025.3
20260507050037 57 325 0.0 0.0 0.00 0.00 0.00 73 1025.2
20260507044547 58 325 0.0 0.0 0.00 0.00 0.00 73 1025.3
20260507043035 58 325 0.0 0.0 0.00 0.00 0.00 73 1025.2
20260507041523 60 325 0.0 0.0 0.00 0.00 0.00 73 1025.2
20260507040023 60 325 0.0 0.0 0.00 0.00 0.00 73 1025.1
20260507034523 61 325 0.0 0.0 0.00 0.00 0.00 72 1024.9
20260507033029 62 325 0.0 0.0 0.00 0.00 0.00 72 1024.8
20260507031529 63 325 0.0 0.0 0.00 0.00 0.00 70 1024.7
20260507030022 64 325 0.0 0.0 0.00 0.00 0.00 69 1024.5
20260507024522 65 326 0.0 0.0 0.00 0.00 0.00 68 1024.3
20260507023021 66 324 0.0 0.0 0.00 0.00 0.00 66 1024.2
20260507021503 67 323 0.0 0.0 0.00 0.00 0.00 65 1024.1
20260507020003 68 325 0.0 0.0 0.00 0.00 0.00 64 1023.9
20260507014557 68 356 0.0 0.0 0.00 0.00 0.00 64 1023.9
20260507013058 69 320 0.0 0.0 0.00 0.00 0.00 62 1023.8
20260507011553 70 326 0.0 0.0 0.00 0.00 0.00 61 1023.7
20260507010050 71 296 0.0 0.0 0.00 0.00 0.00 60 1023.6
20260507004549 71 268 0.0 0.0 0.00 0.00 0.00 60 1023.6
20260507003048 72 288 0.0 0.0 0.00 0.00 0.00 57 1023.6
20260507001549 72 301 0.0 0.0 0.00 0.00 0.00 55 1023.4
20260507000049 72 267 0.0 0.0 0.00 0.00 0.00 55 1023.4
20260506234545 72 307 0.0 0.0 0.00 0.00 0.00 53 1023.4
20260506233037 73 248 0.0 0.0 0.00 0.00 0.00 50 1023.4
20260506231535 72 325 0.0 0.0 0.00 0.00 0.00 51 1023.4
20260506230030 72 226 0.0 0.0 0.00 0.00 0.00 55 1023.5
20260506224529 72 283 0.0 0.0 0.00 0.00 0.00 55 1023.7
20260506223026 72 292 0.0 0.0 0.00 0.00 0.00 57 1023.9
20260506221524 71 293 0.0 0.0 0.00 0.00 0.00 57 1023.9
20260506220022 72 315 0.0 0.0 0.00 0.00 0.00 59 1024.1
20260506214503 72 311 0.0 0.0 0.00 0.00 0.00 60 1024.3
20260506213001 71 335 0.0 0.0 0.00 0.00 0.00 60 1024.4
20260506211550 71 311 0.0 0.0 0.00 0.00 0.00 61 1024.5
20260506210048 71 245 0.0 0.0 0.00 0.00 0.00 61 1024.6
20260506204548 71 323 0.0 0.0 0.00 0.00 0.00 60 1024.7
20260506203045 71 254 0.0 0.0 0.00 0.00 0.00 62 1024.7
20260506201543 70 331 0.0 0.0 0.00 0.00 0.00 60 1024.9
20260506200041 70 311 0.0 0.0 0.00 0.00 0.00 61 1025.1
20260506194538 69 195 0.0 0.0 0.00 0.00 0.00 63 1025.3
20260506193036 69 359 0.0 0.0 0.00 0.00 0.00 63 1025.5
20260506191533 69 290 0.0 0.0 0.00 0.00 0.00 65 1025.7
20260506190021 68 315 0.0 0.0 0.00 0.00 0.00 65 1025.8
20260506184521 68 333 0.0 0.0 0.00 0.00 0.00 66 1025.9
20260506183021 67 316 0.0 0.0 0.00 0.00 0.00 66 1026.0
20260506181518 68 300 0.0 0.0 0.00 0.00 0.00 66 1026.0
20260506180022 68 282 0.0 0.0 0.00 0.00 0.00 66 1026.0
20260506174516 68 306 0.0 0.0 0.00 0.00 0.00 65 1026.0
20260506173017 67 129 0.0 0.0 0.00 0.00 0.00 65 1026.0
20260506171511 66 101 0.0 0.0 0.00 0.00 0.00 66 1026.2
20260506170048 65 316 0.0 0.0 0.00 0.00 0.00 68 1026.3
20260506164548 65 349 0.0 0.0 0.00 0.00 0.00 68 1026.4
20260506163030 65 53 0.0 0.0 0.00 0.00 0.00 67 1026.5
20260506161519 64 77 0.0 0.0 0.00 0.00 0.00 68 1026.5
20260506160108 63 97 0.0 0.0 0.00 0.00 0.00 69 1026.5
20260506154554 62 124 0.0 0.0 0.00 0.00 0.00 72 1026.5
20260506153038 60 124 0.0 0.0 0.00 0.00 0.00 73 1026.6
20260506151531 57 124 0.0 0.0 0.00 0.00 0.00 73 1026.7
20260506150027 55 124 0.0 0.0 0.00 0.00 0.00 74 1026.7
20260506144527 52 124 0.0 0.0 0.00 0.00 0.00 74 1026.7
20260506143024 50 124 0.0 0.0 0.00 0.00 0.00 74 1026.7
20260506141515 49 124 0.0 0.0 0.00 0.00 0.00 74 1026.7
20260506140010 47 124 0.0 0.0 0.00 0.00 0.00 74 1026.7
20260506134505 46 124 0.0 0.0 0.00 0.00 0.00 74 1026.5
20260506133002 45 124 0.0 0.0 0.00 0.00 0.00 75 1026.2
20260506131603 45 124 0.0 0.0 0.00 0.00 0.00 75 1026.1
20260506130100 45 127 0.0 0.0 0.00 0.00 0.00 75 1026.0
20260506124552 45 127 0.0 0.0 0.00 0.00 0.00 75 1025.9
20260506123043 45 127 0.0 0.0 0.00 0.00 0.00 75 1025.7
20260506121542 45 127 0.0 0.0 0.00 0.00 0.00 75 1025.6
20260506120041 45 127 0.0 0.0 0.00 0.00 0.00 75 1025.8
20260506114541 45 127 0.0 0.0 0.00 0.00 0.00 75 1025.7